Pagina principale
METAR-TAF:

METAR-TAF

Aeroporti :

Torino, Italia

Aeroporto di Torino-Aeritalia

latitudine: 45-05-20N, longitudine: 007-36-20E, altezza: 288 m

Osservazione

Il bollettino è stato emesso 1 ora e 42 minuti fa, alle 08:50 UTC
Vento 3 kt da direzioni variabili
Temperature 18°C
Umidità 34%
Pressione 1020 hPa
Visibilità 10 km o più
nessuna nube inferiore a 1500 m e nessun cumulonembo

METAR: LIMA 210850Z VRB03KT CAVOK 18/02 Q1020

Ora: 12:32 (10:32 UTC)


TAF: mancante

Osservazioni e previsioni meteorologiche di più di 4000 aeroporti (messaggi METAR e TAF).

Le stazioni disponibili sono rappresentate dai dischi gialli e rossi sulla carta.

Puntare il mouse per vedere il nome della stazione.

Clicca sopra per visualizzare le osservazioni e previsioni meteorologiche.

Per cambiare la mappa : fare clic sui pulsanti verdi con una croce nera per ingrandire, il pulsante verde con un trattino per diminuire, o sulla freccia verde per le mappe adiacenti.


METAR-TAF: